This demonstration page uses our WeatherBlox Daily Observations layout. Learn more.

Left ArrowRight Arrow

Hourly Observations for May 25, 2017

Temp ( °F °C ) Dew Point ( °F °C ) Humidity (%) Winds ( mph kmh ) Pressure ( in mb ) Visibility ( mi km ) Precip ( " mm )
12:15 am 00:15 Cloudy with Light Rain 59 15 59 15 100 100 ESE 12 19 29.65 1004 10 16 0.02 0.51
12:35 am 00:35 Cloudy with Light Rain 59 15 59 15 100 100 ESE 7 11 29.65 1004 10 16 0.03 0.76
12:55 am 00:55 Cloudy with Light Rain 57 14 57 14 100 100 E 7 11 29.65 1004 10 16 0.04 1.02
1:15 am 01:15 Cloudy with Light Rain 57 14 57 14 100 100 ESE 10 17 29.65 1004 10 16 N/A
1:35 am 01:35 Cloudy with Light Rain 57 14 57 14 100 100 E 7 11 29.62 1003 10 16 0.01 0.25
1:55 am 01:55 Cloudy with Light Rain 57 14 57 14 100 100 E 8 13 29.62 1003 10 16 0.02 0.51
2:15 am 02:15 Cloudy with Light Rain 57 14 57 14 100 100 E 9 15 29.59 1002 10 16 N/A
2:35 am 02:35 Cloudy with Rain 57 14 57 14 100 100 E 6 9 29.59 1002 5 8 0.02 0.51
2:55 am 02:55 Cloudy with Light Rain 57 14 57 14 100 100 ESE 10 17 29.56 1001 7 11 0.03 0.76
3:15 am 03:15 Cloudy with Rain 57 14 57 14 100 100 ESE 7 11 29.56 1001 7 11 0.01 0.25
3:35 am 03:35 Cloudy with Heavy Rain 57 14 57 14 100 100 ESE 8 13 29.56 1001 3 5 0.12 3.05
3:55 am 03:55 Cloudy with Light Rain 55 13 55 13 100 100 E 9 15 29.53 1000 7 11 0.17 4.32
4:15 am 04:15 Cloudy with Light Rain 57 14 57 14 100 100 ESE 5 7 29.53 1000 10 16 N/A
4:35 am 04:35 Cloudy with Light Rain 55 13 55 13 100 100 E 5 7 29.53 1000 5 8 0.05 1.27
4:55 am 04:55 Cloudy with Drizzle 57 14 57 14 100 100 ESE 10 17 29.53 1000 10 16 0.05 1.27
5:15 am 05:15 Cloudy with Heavy Rain 57 14 57 14 100 100 E 5 7 29.53 1000 3 5 0.08 2.03
5:35 am 05:35 Cloudy with Heavy Rain 55 13 55 13 100 100 ENE 6 9 29.53 1000 2 3 0.23 5.84
5:55 am 05:55 Cloudy with Light Rain 55 13 55 13 100 100 E 6 9 29.53 1000 5 8 0.26 6.60
6:15 am 06:15 Cloudy with Rain 55 13 55 13 100 100 ENE 6 9 29.50 999 4 6 0.02 0.51
6:35 am 06:35 Cloudy with Heavy Rain 55 13 55 13 100 100 N N/A 29.53 1000 4 6 0.08 2.03
6:55 am 06:55 Cloudy with Rain 57 14 57 14 100 100 W 7 11 29.53 1000 4 6 0.10 2.54
7:15 am 07:15 Cloudy with Rain 57 14 57 14 100 100 NNW 6 9 29.53 1000 3 4 0.04 1.02
7:35 am 07:35 Cloudy with Light Rain 57 14 57 14 100 100 N 5 7 29.53 1000 3 5 0.05 1.27
7:55 am 07:55 Cloudy with Drizzle 57 14 57 14 100 100 NNE 7 11 29.50 999 5 8 0.05 1.27
8:15 am 08:15 Cloudy 57 14 57 14 100 100 N 6 9 29.50 999 10 16 N/A
8:35 am 08:35 Cloudy 59 15 59 15 100 100 NE 8 13 29.50 999 7 11 0.01 0.25
8:55 am 08:55 Cloudy 59 15 59 15 100 100 NNE 6 9 29.53 1000 10 16 0.01 0.25
9:15 am 09:15 Cloudy with Mist and Fog 59 15 59 15 100 100 NE 8 13 29.53 1000 3 5 N/A
9:35 am 09:35 Cloudy 61 16 61 16 100 100 NNE 5 7 29.53 1000 7 11 N/A
9:55 am 09:55 Cloudy 61 16 61 16 100 100 NNE 5 7 29.53 1000 10 16 N/A
10:15 am 10:15 Cloudy 61 16 61 16 100 100 N 3 6 29.53 1000 10 16 N/A
10:35 am 10:35 Cloudy with Mist and Fog 61 16 61 16 100 100 N 3 6 29.53 1000 4 6 N/A
10:55 am 10:55 Cloudy 63 17 61 16 94 94 N N/A 29.53 1000 10 16 N/A
11:15 am 11:15 Cloudy 63 17 61 16 94 94 N N/A 29.53 1000 10 16 N/A
11:35 am 11:35 Cloudy 64 18 61 16 88 88 N N/A 29.53 1000 10 16 N/A
11:55 am 11:55 Cloudy 64 18 63 17 94 94 N N/A 29.53 1000 7 11 N/A
12:15 pm 12:15 Cloudy 64 18 63 17 94 94 WNW 7 11 29.53 1000 10 16 N/A
12:35 pm 12:35 Cloudy 64 18 63 17 94 94 N N/A 29.53 1000 10 16 N/A
12:55 pm 12:55 Cloudy 68 20 61 16 78 78 W 5 7 29.53 1000 10 16 N/A
1:15 pm 13:15 Cloudy 68 20 61 16 78 78 NNE 3 6 29.53 1000 10 16 N/A
1:35 pm 13:35 Partly Cloudy 70 21 61 16 73 73 N N/A 29.50 999 10 16 N/A
1:55 pm 13:55 Mostly Cloudy 70 21 61 16 73 73 N N/A 29.50 999 10 16 N/A
2:15 pm 14:15 Cloudy 72 22 61 16 69 69 N N/A 29.50 999 10 16 N/A
2:35 pm 14:35 Cloudy 70 21 61 16 73 73 ESE 5 7 29.50 999 10 16 N/A
2:55 pm 14:55 Cloudy 70 21 61 16 73 73 ENE 8 13 29.47 998 10 16 N/A
3:15 pm 15:15 Partly Cloudy 72 22 63 17 73 73 ENE 7 11 29.47 998 10 16 N/A
3:35 pm 15:35 Partly Cloudy with Nearby Thunderstorms 73 23 63 17 69 69 SE 6 9 29.47 998 10 16 N/A
3:55 pm 15:55 Cloudy with Thunderstorms 72 22 61 16 69 69 SE 3 6 29.44 997 10 16 N/A
4:15 pm 16:15 Partly Cloudy with Nearby Thunderstorms 72 22 61 16 69 69 SE 5 7 29.44 997 10 16 N/A
4:35 pm 16:35 Mostly Cloudy with Nearby Thunderstorms 72 22 61 16 69 69 N N/A 29.44 997 10 16 N/A
4:55 pm 16:55 Windy with Storms Likely 68 20 61 16 78 78 WNW 20 31 29.47 998 7 11 0.01 0.25
5:15 pm 17:15 Cloudy 61 16 61 16 100 100 NNW 10 17 29.47 998 10 16 0.06 1.52
5:35 pm 17:35 Cloudy with Light Rain 61 16 59 15 94 94 N 14 22 29.47 998 10 16 0.07 1.78
5:55 pm 17:55 Cloudy with Thunderstorms 61 16 59 15 94 94 SSW 14 22 29.50 999 10 16 0.07 1.78
6:15 pm 18:15 Cloudy with Strong Thunderstorms 61 16 59 15 94 94 N 9 15 29.50 999 1 1 0.44 11.18
6:35 pm 18:35 Cloudy with Rain 59 15 59 15 100 100 N 7 11 29.50 999 10 16 0.46 11.68
6:55 pm 18:55 Cloudy with Rain 61 16 61 16 100 100 N 6 9 29.50 999 10 16 0.50 12.70
7:15 pm 19:15 Cloudy with Light Rain 61 16 61 16 100 100 N N/A 29.50 999 10 16 0.01 0.25
7:35 pm 19:35 Cloudy with Light Rain 61 16 61 16 100 100 S 3 6 29.50 999 10 16 0.01 0.25
7:55 pm 19:55 Cloudy 61 16 61 16 100 100 N N/A 29.50 999 10 16 0.01 0.25
8:15 pm 20:15 Partly Cloudy 59 15 59 15 100 100 NW 3 6 29.50 999 10 16 0.01 0.25
8:35 pm 20:35 Clear 59 15 59 15 100 100 N N/A 29.50 999 10 16 0.01 0.25
8:55 pm 20:55 Clear 59 15 59 15 100 100 WNW 7 11 29.50 999 10 16 0.01 0.25
9:15 pm 21:15 Clear 59 15 59 15 100 100 W 6 9 29.53 1000 10 16 N/A
9:35 pm 21:35 Clear 59 15 59 15 100 100 N N/A 29.53 1000 10 16 N/A
9:55 pm 21:55 Mostly Cloudy 59 15 59 15 100 100 N N/A 29.53 1000 10 16 N/A
10:15 pm 22:15 Cloudy 59 15 59 15 100 100 N N/A 29.53 1000 10 16 N/A
10:35 pm 22:35 Cloudy 59 15 59 15 100 100 N N/A 29.56 1001 10 16 N/A
10:55 pm 22:55 Cloudy 59 15 59 15 100 100 N N/A 29.56 1001 10 16 N/A
11:15 pm 23:15 Cloudy 59 15 59 15 100 100 N N/A 29.56 1001 10 16 N/A
11:35 pm 23:35 Partly Cloudy 59 15 59 15 100 100 N N/A 29.56 1001 10 16 N/A
11:55 pm 23:55 Clear 59 15 59 15 100 100 N N/A 29.59 1002 10 16 N/A

Powered by AerisWeather